CCA423 ULLI-EFHK

Flight info

Callsign CCA423
Flight time 0h 39m
Altitude 26000
Route K0815F260 UTETA1A UTETA M60 ATLUM T561 LEDUN DCT ROPAM ROPAM5A
Aircraft A359/H-SDE2E3GHIJ3J4J5LM1ORWXY/LB1D1

Departure

Time 2026-04-23 19:50
Airport Pulkovo Airport (ULLI)

Arrival

Time 2026-04-23 20:29
Airport Helsinki Vantaa Airport (EFHK)
Time Latitude Longitude Altitude Speed Heading
2026-04-23 19:08 59.80109 30.26858 89 ft 0 kts 107°
2026-04-23 19:41 59.80112 30.26844 94 ft 4 kts 107°
2026-04-23 19:41 59.80119 30.26792 93 ft 4 kts 107°
2026-04-23 19:41 59.80125 30.26741 92 ft 4 kts 93°
2026-04-23 19:42 59.80123 30.26690 92 ft 4 kts 66°
2026-04-23 19:42 59.80108 30.26652 93 ft 4 kts 21°
2026-04-23 19:42 59.80103 30.26648 93 ft 4 kts 17°
2026-04-23 19:44 59.80108 30.26651 93 ft 5 kts 17°
2026-04-23 19:45 59.80168 30.26687 92 ft 11 kts 17°
2026-04-23 19:45 59.80262 30.26742 92 ft 16 kts 17°
2026-04-23 19:45 59.80371 30.26817 93 ft 14 kts 38°
2026-04-23 19:45 59.80376 30.26971 93 ft 15 kts 101°
2026-04-23 19:46 59.80348 30.27181 92 ft 17 kts 110°
2026-04-23 19:46 59.80311 30.27422 93 ft 20 kts 105°
2026-04-23 19:46 59.80270 30.27699 93 ft 22 kts 106°
2026-04-23 19:46 59.80224 30.28010 90 ft 25 kts 106°
2026-04-23 19:47 59.80172 30.28353 92 ft 27 kts 106°
2026-04-23 19:47 59.80117 30.28722 91 ft 29 kts 106°
2026-04-23 19:47 59.80058 30.29117 92 ft 31 kts 106°
2026-04-23 19:47 59.79995 30.29537 90 ft 33 kts 107°
2026-04-23 19:48 59.79937 30.29951 89 ft 25 kts 95°
2026-04-23 19:48 59.79966 30.30089 91 ft 0 kts 51°
2026-04-23 19:48 59.79982 30.30122 88 ft 0 kts 46°
2026-04-23 19:48 59.79991 30.30141 90 ft 10 kts 47°
2026-04-23 19:49 59.80080 30.30283 88 ft 18 kts
2026-04-23 19:49 59.80143 30.30111 88 ft 21 kts 290°
2026-04-23 19:49 59.80254 30.29370 92 ft 93 kts 286°
2026-04-23 19:49 59.80496 30.27714 93 ft 154 kts 285°
2026-04-23 19:50 59.80795 30.25582 685 ft 160 kts 287°
2026-04-23 19:50 59.81106 30.23516 1544 ft 163 kts 290°
2026-04-23 19:50 59.81470 30.21164 1954 ft 194 kts 290°
2026-04-23 19:50 59.81885 30.18443 2517 ft 216 kts 290°
2026-04-23 19:51 59.82342 30.15396 3054 ft 242 kts 289°
2026-04-23 19:51 59.82835 30.12070 3401 ft 254 kts 289°
2026-04-23 19:51 59.83329 30.08711 3497 ft 253 kts 289°
2026-04-23 19:51 59.83818 30.05352 3494 ft 253 kts 289°
2026-04-23 19:52 59.84305 30.01994 3578 ft 253 kts 289°
2026-04-23 19:52 59.84710 29.98550 4102 ft 259 kts 279°
2026-04-23 19:52 59.84599 29.94956 5015 ft 263 kts 263°
2026-04-23 19:52 59.84208 29.91377 5868 ft 267 kts 260°
2026-04-23 19:53 59.83776 29.87763 6649 ft 271 kts 261°
2026-04-23 19:53 59.83345 29.84149 7421 ft 274 kts 262°
2026-04-23 19:53 59.82906 29.80426 8182 ft 278 kts 262°
2026-04-23 19:53 59.82462 29.76651 8940 ft 283 kts 263°
2026-04-23 19:54 59.82014 29.72823 9709 ft 287 kts 264°
2026-04-23 19:54 59.81556 29.68902 10216 ft 299 kts 264°
2026-04-23 19:54 59.81074 29.64750 10511 ft 318 kts 263°
2026-04-23 19:54 59.80559 29.60345 10787 ft 336 kts 263°
2026-04-23 19:55 59.80016 29.55760 11253 ft 345 kts 263°
2026-04-23 19:55 59.79466 29.51159 11882 ft 349 kts 262°
2026-04-23 19:55 59.78901 29.46450 12507 ft 352 kts 264°
2026-04-23 19:55 59.78332 29.41697 13143 ft 356 kts 264°
2026-04-23 19:56 59.77756 29.36894 13747 ft 359 kts 264°
2026-04-23 19:56 59.77173 29.32047 14307 ft 363 kts 264°
2026-04-23 19:56 59.76582 29.27159 14850 ft 366 kts 264°
2026-04-23 19:56 59.75985 29.22229 15400 ft 370 kts 264°
2026-04-23 19:57 59.75380 29.17254 15961 ft 373 kts 264°
2026-04-23 19:57 59.74775 29.12294 16612 ft 377 kts 265°
2026-04-23 19:57 59.74156 29.07226 17487 ft 381 kts 265°
2026-04-23 19:57 59.73650 29.02086 18324 ft 378 kts 272°
2026-04-23 19:58 59.73529 28.96923 19037 ft 374 kts 279°
2026-04-23 19:58 59.73591 28.91767 19789 ft 374 kts 282°
2026-04-23 19:58 59.73743 28.86611 20541 ft 376 kts 284°
2026-04-23 19:58 59.73928 28.81435 21300 ft 378 kts 284°
2026-04-23 19:59 59.74113 28.76213 22052 ft 381 kts 285°
2026-04-23 19:59 59.74285 28.70943 22795 ft 385 kts 285°
2026-04-23 19:59 59.74440 28.65620 23469 ft 388 kts 285°
2026-04-23 19:59 59.74581 28.60333 24089 ft 391 kts 285°
2026-04-23 20:00 59.74715 28.54923 24713 ft 394 kts 285°
2026-04-23 20:00 59.74844 28.49487 25323 ft 397 kts 286°
2026-04-23 20:00 59.74972 28.44007 25925 ft 399 kts 287°
2026-04-23 20:00 59.75105 28.38448 26169 ft 409 kts 287°
2026-04-23 20:01 59.75242 28.32789 26076 ft 411 kts 286°
2026-04-23 20:01 59.75365 28.27125 25885 ft 412 kts 286°
2026-04-23 20:01 59.75485 28.21424 25829 ft 414 kts 285°
2026-04-23 20:01 59.75603 28.15722 25826 ft 415 kts 285°
2026-04-23 20:02 59.75718 28.10080 25829 ft 415 kts 285°
2026-04-23 20:02 59.75832 28.04368 25829 ft 415 kts 285°
2026-04-23 20:02 59.75944 27.98655 25831 ft 415 kts 285°
2026-04-23 20:02 59.76056 27.92929 25800 ft 415 kts 285°
2026-04-23 20:03 59.76165 27.87218 25828 ft 413 kts 285°
2026-04-23 20:03 59.76259 27.81621 25839 ft 398 kts 285°
2026-04-23 20:03 59.76335 27.76249 25842 ft 381 kts 286°
2026-04-23 20:03 59.76414 27.71062 25840 ft 374 kts 286°
2026-04-23 20:04 59.76732 27.66050 25839 ft 359 kts 296°
2026-04-23 20:04 59.77294 27.61320 25835 ft 356 kts 298°
2026-04-23 20:04 59.77928 27.56575 25834 ft 356 kts 299°
2026-04-23 20:04 59.78623 27.51748 25789 ft 373 kts 299°
2026-04-23 20:05 59.79377 27.46684 25721 ft 391 kts 298°
2026-04-23 20:05 59.80136 27.41462 25513 ft 394 kts 298°
2026-04-23 20:05 59.80871 27.36215 25266 ft 394 kts 297°
2026-04-23 20:05 59.81585 27.30992 24880 ft 391 kts 297°
2026-04-23 20:06 59.82294 27.25773 24297 ft 390 kts 296°
2026-04-23 20:06 59.83001 27.20574 23733 ft 389 kts 296°
2026-04-23 20:06 59.83705 27.15397 23136 ft 387 kts 296°
2026-04-23 20:06 59.84395 27.10322 22487 ft 384 kts 296°
2026-04-23 20:07 59.85090 27.05206 21846 ft 382 kts 295°
2026-04-23 20:07 59.85778 27.00126 21214 ft 379 kts 295°
2026-04-23 20:07 59.86458 26.95097 20611 ft 375 kts 295°
2026-04-23 20:07 59.87132 26.90102 19998 ft 372 kts 295°
2026-04-23 20:08 59.87797 26.85156 19398 ft 368 kts 294°
2026-04-23 20:08 59.88456 26.80246 18822 ft 366 kts 294°
2026-04-23 20:08 59.89108 26.75376 18261 ft 363 kts 294°
2026-04-23 20:08 59.89756 26.70526 17651 ft 361 kts 294°
2026-04-23 20:09 59.90387 26.65780 17055 ft 359 kts 293°
2026-04-23 20:09 59.91021 26.61001 16436 ft 356 kts 293°
2026-04-23 20:09 59.91650 26.56238 15838 ft 354 kts 292°
2026-04-23 20:09 59.92271 26.51521 15288 ft 351 kts 292°
2026-04-23 20:10 59.92679 26.48406 14950 ft 349 kts 292°
2026-04-23 20:10 59.93498 26.42156 14299 ft 348 kts 292°
2026-04-23 20:10 59.94106 26.37501 13809 ft 346 kts 291°
2026-04-23 20:10 59.94710 26.32867 13275 ft 345 kts 291°
2026-04-23 20:11 59.95306 26.28260 12899 ft 341 kts 291°
2026-04-23 20:11 59.95892 26.23729 12635 ft 341 kts 291°
2026-04-23 20:11 59.96483 26.19147 12367 ft 340 kts 291°
2026-04-23 20:11 59.97080 26.14598 12056 ft 334 kts 292°
2026-04-23 20:12 59.97933 26.10408 11687 ft 319 kts 303°
2026-04-23 20:12 59.99032 26.06541 11514 ft 324 kts 306°
2026-04-23 20:12 60.00203 26.02675 11284 ft 326 kts 306°
2026-04-23 20:12 60.01391 25.98811 11096 ft 323 kts 306°
2026-04-23 20:13 60.02539 25.95080 10931 ft 308 kts 306°
2026-04-23 20:13 60.03624 25.91558 10728 ft 295 kts 306°
2026-04-23 20:13 60.04549 25.88566 10562 ft 284 kts 306°
2026-04-23 20:13 60.05569 25.85264 10333 ft 274 kts 307°
2026-04-23 20:14 60.06554 25.82080 10135 ft 265 kts 307°
2026-04-23 20:14 60.07519 25.78965 9946 ft 262 kts 306°
2026-04-23 20:14 60.08482 25.75857 9706 ft 263 kts 306°
2026-04-23 20:14 60.09442 25.72750 9503 ft 263 kts 306°
2026-04-23 20:15 60.10403 25.69636 9304 ft 262 kts 306°
2026-04-23 20:15 60.11362 25.66520 9130 ft 262 kts 306°
2026-04-23 20:15 60.12317 25.63411 8935 ft 262 kts 306°
2026-04-23 20:15 60.13260 25.60337 8755 ft 262 kts 306°
2026-04-23 20:16 60.14187 25.57205 8566 ft 262 kts 303°
2026-04-23 20:16 60.15070 25.54001 8389 ft 262 kts 302°
2026-04-23 20:16 60.15944 25.50806 8190 ft 261 kts 302°
2026-04-23 20:16 60.16823 25.47612 7994 ft 261 kts 302°
2026-04-23 20:17 60.17700 25.44431 7811 ft 260 kts 302°
2026-04-23 20:17 60.18574 25.41266 7644 ft 259 kts 302°
2026-04-23 20:17 60.19448 25.38106 7448 ft 258 kts 302°
2026-04-23 20:17 60.20318 25.34958 7277 ft 258 kts 302°
2026-04-23 20:18 60.21177 25.31845 7088 ft 257 kts 302°
2026-04-23 20:18 60.22044 25.28702 6906 ft 257 kts 302°
2026-04-23 20:18 60.22909 25.25561 6721 ft 257 kts 302°
2026-04-23 20:18 60.23772 25.22421 6544 ft 256 kts 302°
2026-04-23 20:19 60.24635 25.19282 6349 ft 256 kts 301°
2026-04-23 20:19 60.25494 25.16148 6177 ft 255 kts 301°
2026-04-23 20:19 60.26191 25.12848 6072 ft 259 kts 287°
2026-04-23 20:19 60.26241 25.09268 5936 ft 265 kts 262°
2026-04-23 20:20 60.25470 25.05887 5764 ft 271 kts 237°
2026-04-23 20:20 60.24233 25.03000 5500 ft 273 kts 230°
2026-04-23 20:20 60.22931 25.00225 5215 ft 272 kts 230°
2026-04-23 20:20 60.21637 24.97458 4929 ft 271 kts 231°
2026-04-23 20:21 60.20362 24.94705 4647 ft 266 kts 231°
2026-04-23 20:21 60.19121 24.92012 4354 ft 260 kts 231°
2026-04-23 20:21 60.17911 24.89365 4065 ft 254 kts 231°
2026-04-23 20:21 60.16728 24.86783 3776 ft 249 kts 231°
2026-04-23 20:22 60.15568 24.84258 3529 ft 243 kts 231°
2026-04-23 20:22 60.14451 24.81825 3279 ft 238 kts 231°
2026-04-23 20:22 60.13505 24.79190 2975 ft 229 kts 251°
2026-04-23 20:22 60.13333 24.76145 2710 ft 216 kts 284°
2026-04-23 20:23 60.13978 24.73585 2560 ft 201 kts 313°
2026-04-23 20:23 60.14936 24.71700 2495 ft 185 kts 321°
2026-04-23 20:23 60.15988 24.70386 2505 ft 174 kts 335°
2026-04-23 20:23 60.17095 24.69455 2520 ft 171 kts 339°
2026-04-23 20:24 60.18218 24.68629 2508 ft 173 kts 340°
2026-04-23 20:24 60.19345 24.67870 2501 ft 174 kts 344°
2026-04-23 20:24 60.20546 24.67792 2496 ft 176 kts 12°
2026-04-23 20:24 60.21603 24.69053 2509 ft 180 kts 40°
2026-04-23 20:25 60.22451 24.70847 2497 ft 172 kts 44°
2026-04-23 20:25 60.23197 24.72688 2504 ft 165 kts 46°
2026-04-23 20:25 60.23948 24.74313 2355 ft 155 kts 41°
2026-04-23 20:25 60.24672 24.75878 2135 ft 151 kts 43°
2026-04-23 20:26 60.25376 24.77437 1927 ft 150 kts 43°
2026-04-23 20:26 60.26069 24.78960 1731 ft 148 kts 43°
2026-04-23 20:26 60.26761 24.80474 1500 ft 145 kts 43°
2026-04-23 20:26 60.27438 24.81956 1307 ft 142 kts 43°
2026-04-23 20:27 60.28089 24.83382 1102 ft 135 kts 44°
2026-04-23 20:27 60.28722 24.84765 920 ft 134 kts 45°
2026-04-23 20:27 60.29357 24.86157 731 ft 135 kts 45°
2026-04-23 20:27 60.29993 24.87549 559 ft 135 kts 46°
2026-04-23 20:28 60.30629 24.88945 378 ft 135 kts 46°
2026-04-23 20:28 60.31256 24.90324 218 ft 135 kts 45°
2026-04-23 20:28 60.31878 24.91693 159 ft 126 kts 44°
2026-04-23 20:28 60.32401 24.92821 179 ft 92 kts 47°
2026-04-23 20:29 60.32752 24.93592 198 ft 57 kts 47°
2026-04-23 20:29 60.32932 24.93993 203 ft 20 kts 47°
2026-04-23 20:29 60.32985 24.94109 208 ft 10 kts 47°
2026-04-23 20:29 60.33036 24.94235 207 ft 13 kts 62°
2026-04-23 20:30 60.33047 24.94431 194 ft 16 kts 89°
2026-04-23 20:30 60.32889 24.94901 181 ft 26 kts 151°
2026-04-23 20:30 60.32717 24.95023 192 ft 26 kts 162°
2026-04-23 20:31 60.32542 24.95139 198 ft 27 kts 162°
2026-04-23 20:31 60.32350 24.95266 183 ft 30 kts 155°
2026-04-23 20:31 60.32188 24.95549 180 ft 32 kts 136°
2026-04-23 20:31 60.32017 24.95862 179 ft 34 kts 137°
2026-04-23 20:32 60.31881 24.96107 173 ft 21 kts 144°
2026-04-23 20:32 60.31810 24.96070 173 ft 11 kts 219°
2026-04-23 20:32 60.31748 24.95946 173 ft 13 kts 221°
2026-04-23 20:32 60.31720 24.95937 173 ft 0 kts 153°
2026-04-23 20:33 60.31716 24.95943 173 ft 2 kts 144°
2026-04-23 20:33 60.31697 24.95977 173 ft 3 kts 134°
2026-04-23 20:33 60.31683 24.96007 173 ft 2 kts 135°
2026-04-23 20:33 60.31677 24.96018 173 ft 0 kts 136°
2026-04-23 20:34 60.31677 24.96019 173 ft 0 kts 136°